Regional Weather Roundup
Issued by NWS Albany, NY

Home | Current Version | Previous Version | Graphics & Text | Print | Product List | Glossary Off
Versions: 1 2 3 4 5 6 7 8 9 10 11 12 13 14 15 16 17 18 19 20 21 22 23 24 25 26 27

000
ASUS41 KALY 031610
RWRALY

NEW YORK STATE HOURLY WEATHER ROUNDUP
NATIONAL WEATHER SERVICE ALBANY NY
1100 AM EST SAT DEC 03 2016

NOTE: "FAIR" INDICATES FEW OR NO CLOUDS BELOW 12,000 FEET WITH NO
SIGNIFICANT WEATHER AND/OR NO OBSTRUCTIONS TO VISIBILITY.

NYZ032-033-038>043-046>054-057>066-NYZ062>081-082-084-031700-
EAST


CITY           SKY/WX    TMP DP  RH WIND       PRES   REMARKS
ALBANY         MOSUNNY   41  26  55 NW24G31   30.01R
GLENS FALLS    CLOUDY    43  25  49 NW13G22   29.98R
POUGHKEEPSIE   CLOUDY    42  27  55 NW8       30.00S
NEWBURGH       PTSUNNY   41  28  60 NW14G30   30.02R
MONTGOMERY     MOSUNNY   43  26  51 NW15G23   30.01S
WHITE PLAINS   PTSUNNY   44  26  49 NW17G26   30.00S
ISLIP          MOSUNNY   47  27  45 NW21G28   29.97F
NEW YORK CITY  PTSUNNY   47  28  47 NW24G31   30.02F
CENTRAL PARK   PTSUNNY   44  24  45 NW12G23   30.05F
$$

NYZ005>009-017-018-044>046-055-056-031700-
CENTRAL


CITY           SKY/WX    TMP DP  RH WIND       PRES   REMARKS
FULTON         CLOUDY    37  28  70 NW15      30.11S WCI  28
SYRACUSE       FLURRIES  36  28  73 W12       30.10S WCI  28
ROME           CLOUDY    34  32  92 W14       30.09S WCI  25
ELMIRA         CLOUDY    39  28  64 W14G23    30.11R WCI  31
BINGHAMTON     LGT SNOW  32  29  88 NW9       30.04F FOG     WCI  24
MONTICELLO     CLOUDY    36  27  69 NW20G28   30.02S WCI  25
$$

NYZ026>034-041>043-087-031700-
NORTH


CITY           SKY/WX    TMP DP  RH WIND       PRES   REMARKS
WATERTOWN      CLOUDY    37  26  64 W14       30.09S WCI  28
FORT DRUM      NOT AVBL
OGDENSBURG     CLOUDY    37  28  71 NW16G23   30.06S WCI  27
MASSENA        CLOUDY    36  26  67 W16       30.04S WCI  26
SARANAC LAKE   FLURRIES  28  24  85 NW8       29.93S WCI  20
PLATTSBURGH    LGT SNOW  36  28  73 NW10G22   29.97R WCI  28
$$

NYZ001>004-010>016-019>021-085-031700-
WEST


CITY           SKY/WX    TMP DP  RH WIND       PRES   REMARKS
NIAGARA FALLS  PTSUNNY   41  30  65 NW20      30.18R
BUFFALO        PTSUNNY   40  30  67 NW17G24   30.18R WCI  31
DUNKIRK        CLOUDY    41  34  76 W15G23    30.22R
JAMESTOWN      CLOUDY    36  28  75 NW14      30.18R WCI  27
WELLSVILLE     CLOUDY    35  29  78 NW16G24   30.13S WCI  25
ROCHESTER      LGT RAIN  37  35  92 NW6       30.15S WCI  32
PENN YAN       CLOUDY    37  29  72 W12       30.12S WCI  29
$$

             KEY
       WCI = WIND CHILL INDEX
       VSB = VISIBILITY
       HX  = HEAT INDEX
$$




USA.gov is the U.S. government's official web portal to all federal, state and local government web resources and services.